Station Historical Data
Daily Summary for October 12, 2017 Units:  English    Metric   Both
« Previous Day
Next Day »
Daily Weekly Monthly Yearly Custom
  High: Low: Average:
Temperature: 64.8 °F 51.7 °F 56.9 °F
Dew Point: 56.7 °F 48.6 °F 52.2 °F
Humidity: 90% 74% 85%
Wind Speed: 12.0mph 0.0mph 4.4mph
Wind Gust: 21.0mph - -
Wind- - East
Pressure: 30.27 in 30.19 in -
Precipitation: 0.03 in    
Historical Graphs
 
 
Tabular Data for October 12, 2017
Time Temperature Dew Point Pressure Wind Wind Speed Wind Gust Humidity Rainfall Rate (Hourly)
00:04 52.0 °F 48.9 °F 30.19 in ENE 7.0 mph 15.0 mph 89% 0.00 in
00:09 52.0 °F 48.9 °F 30.19 in NE 7.0 mph 15.0 mph 89% 0.00 in
00:14 52.0 °F 48.9 °F 30.19 in ENE 6.0 mph 14.0 mph 89% 0.00 in
00:19 52.1 °F 49.0 °F 30.19 in ENE 6.0 mph 13.0 mph 89% 0.00 in
00:24 52.1 °F 49.0 °F 30.19 in ENE 7.0 mph 16.0 mph 89% 0.00 in
00:29 52.1 °F 49.0 °F 30.19 in ENE 7.0 mph 16.0 mph 89% 0.00 in
00:34 52.1 °F 49.0 °F 30.19 in NE 8.0 mph 13.0 mph 89% 0.00 in
00:39 52.2 °F 49.1 °F 30.20 in NE 8.0 mph 15.0 mph 89% 0.00 in
00:44 52.1 °F 49.0 °F 30.20 in NE 5.0 mph 14.0 mph 89% 0.00 in
00:49 52.2 °F 49.1 °F 30.20 in ENE 10.0 mph 21.0 mph 89% 0.00 in
00:54 52.2 °F 49.1 °F 30.20 in NE 12.0 mph 18.0 mph 89% 0.00 in
00:59 52.2 °F 49.1 °F 30.20 in NE 11.0 mph 17.0 mph 89% 0.00 in
01:04 52.3 °F 49.2 °F 30.20 in NE 7.0 mph 15.0 mph 89% 0.00 in
01:09 52.3 °F 49.2 °F 30.20 in NE 8.0 mph 15.0 mph 89% 0.00 in
01:14 52.3 °F 49.2 °F 30.20 in NE 8.0 mph 15.0 mph 89% 0.00 in
01:19 52.3 °F 49.2 °F 30.20 in NE 8.0 mph 15.0 mph 89% 0.00 in
01:24 52.3 °F 49.2 °F 30.20 in NE 8.0 mph 13.0 mph 89% 0.00 in
01:29 52.3 °F 49.2 °F 30.20 in NE 6.0 mph 13.0 mph 89% 0.00 in
01:34 52.2 °F 49.4 °F 30.20 in NE 6.0 mph 13.0 mph 90% 0.01 in
01:39 52.2 °F 49.4 °F 30.20 in ENE 7.0 mph 15.0 mph 90% 0.01 in
01:44 52.2 °F 49.4 °F 30.20 in ENE 8.0 mph 15.0 mph 90% 0.01 in
01:49 52.3 °F 49.5 °F 30.20 in ENE 9.0 mph 16.0 mph 90% 0.01 in
01:54 52.3 °F 49.5 °F 30.20 in ENE 7.0 mph 16.0 mph 90% 0.01 in
01:59 52.3 °F 49.5 °F 30.20 in ENE 8.0 mph 20.0 mph 90% 0.01 in
02:04 52.2 °F 49.4 °F 30.20 in ENE 10.0 mph 14.0 mph 90% 0.01 in
02:09 52.3 °F 49.5 °F 30.20 in ENE 11.0 mph 16.0 mph 90% 0.01 in
02:14 52.3 °F 49.5 °F 30.20 in ENE 4.0 mph 15.0 mph 90% 0.01 in
02:19 52.2 °F 49.4 °F 30.20 in NE 8.0 mph 16.0 mph 90% 0.01 in
02:24 52.2 °F 49.4 °F 30.20 in ENE 7.0 mph 16.0 mph 90% 0.01 in
02:29 52.1 °F 49.3 °F 30.20 in ENE 7.0 mph 12.0 mph 90% 0.01 in
02:34 52.0 °F 49.2 °F 30.20 in ENE 7.0 mph 15.0 mph 90% 0.01 in
02:39 52.0 °F 49.2 °F 30.20 in ENE 7.0 mph 15.0 mph 90% 0.01 in
02:44 51.9 °F 49.1 °F 30.20 in East 8.0 mph 11.0 mph 90% 0.01 in
02:49 51.9 °F 49.1 °F 30.20 in NE 4.0 mph 17.0 mph 90% 0.01 in
02:54 51.9 °F 49.1 °F 30.20 in ENE 6.0 mph 17.0 mph 90% 0.01 in
02:59 51.8 °F 49.0 °F 30.20 in ENE 5.0 mph 13.0 mph 90% 0.01 in
03:04 51.8 °F 49.0 °F 30.20 in ENE 8.0 mph 12.0 mph 90% 0.01 in
03:09 51.8 °F 49.0 °F 30.20 in ENE 7.0 mph 12.0 mph 90% 0.01 in
03:14 51.8 °F 49.0 °F 30.20 in NE 5.0 mph 12.0 mph 90% 0.01 in
03:19 51.7 °F 48.9 °F 30.20 in ENE 8.0 mph 10.0 mph 90% 0.01 in
03:24 51.7 °F 48.9 °F 30.20 in ENE 6.0 mph 13.0 mph 90% 0.01 in
03:29 51.7 °F 48.9 °F 30.20 in ENE 7.0 mph 15.0 mph 90% 0.01 in
03:34 51.7 °F 48.9 °F 30.19 in ENE 7.0 mph 15.0 mph 90% 0.00 in
03:39 51.7 °F 48.9 °F 30.20 in ENE 6.0 mph 13.0 mph 90% 0.00 in
03:44 51.7 °F 48.9 °F 30.19 in ENE 5.0 mph 10.0 mph 90% 0.00 in
03:49 51.8 °F 49.0 °F 30.20 in SE 8.0 mph 13.0 mph 90% 0.00 in
03:59 51.7 °F 48.9 °F 30.19 in ENE 7.0 mph 11.0 mph 90% 0.00 in
04:04 51.8 °F 48.7 °F 30.20 in East 10.0 mph 13.0 mph 89% 0.00 in
04:09 51.7 °F 48.6 °F 30.20 in NE 5.0 mph 12.0 mph 89% 0.00 in
04:14 51.8 °F 48.7 °F 30.20 in East 2.0 mph 9.0 mph 89% 0.00 in
04:19 51.9 °F 48.8 °F 30.20 in ENE 5.0 mph 10.0 mph 89% 0.00 in
04:24 51.8 °F 48.7 °F 30.20 in ENE 6.0 mph 11.0 mph 89% 0.00 in
04:29 51.8 °F 48.7 °F 30.20 in ENE 3.0 mph 11.0 mph 89% 0.00 in
04:34 51.9 °F 48.8 °F 30.20 in NE 4.0 mph 15.0 mph 89% 0.00 in
04:39 51.9 °F 48.8 °F 30.20 in NE 7.0 mph 10.0 mph 89% 0.00 in
04:44 51.9 °F 48.8 °F 30.20 in NE 6.0 mph 10.0 mph 89% 0.00 in
04:49 52.0 °F 48.9 °F 30.20 in ENE 6.0 mph 11.0 mph 89% 0.00 in
04:54 51.9 °F 48.8 °F 30.20 in ENE 6.0 mph 11.0 mph 89% 0.00 in
04:59 51.9 °F 48.8 °F 30.20 in ENE 5.0 mph 11.0 mph 89% 0.00 in
05:04 51.9 °F 48.8 °F 30.20 in ENE 5.0 mph 11.0 mph 89% 0.00 in
05:09 51.9 °F 48.8 °F 30.21 in ENE 5.0 mph 10.0 mph 89% 0.00 in
05:14 51.9 °F 48.8 °F 30.21 in ENE 4.0 mph 10.0 mph 89% 0.00 in
05:19 51.9 °F 48.8 °F 30.21 in ENE 5.0 mph 8.0 mph 89% 0.00 in
05:24 51.9 °F 48.8 °F 30.21 in NE 8.0 mph 8.0 mph 89% 0.00 in
05:29 51.9 °F 48.8 °F 30.21 in NE 4.0 mph 12.0 mph 89% 0.00 in
05:34 51.9 °F 48.8 °F 30.21 in NE 4.0 mph 10.0 mph 89% 0.00 in
05:39 51.9 °F 48.8 °F 30.21 in ENE 2.0 mph 9.0 mph 89% 0.00 in
05:44 51.9 °F 48.8 °F 30.21 in ENE 5.0 mph 10.0 mph 89% 0.00 in
05:49 52.0 °F 48.9 °F 30.22 in ENE 5.0 mph 10.0 mph 89% 0.00 in
05:54 52.0 °F 49.2 °F 30.22 in ENE 4.0 mph 10.0 mph 90% 0.00 in
05:59 52.1 °F 49.3 °F 30.22 in NE 3.0 mph 10.0 mph 90% 0.00 in
06:04 52.1 °F 49.3 °F 30.22 in NE 9.0 mph 11.0 mph 90% 0.00 in
06:09 52.1 °F 49.3 °F 30.22 in NE 8.0 mph 11.0 mph 90% 0.00 in
06:14 52.1 °F 49.3 °F 30.22 in ENE 4.0 mph 11.0 mph 90% 0.00 in
06:24 52.1 °F 49.3 °F 30.23 in ENE 5.0 mph 12.0 mph 90% 0.00 in
06:29 52.1 °F 49.3 °F 30.22 in ENE 6.0 mph 12.0 mph 90% 0.00 in
06:34 52.1 °F 49.3 °F 30.23 in ENE 4.0 mph 9.0 mph 90% 0.00 in
06:39 52.2 °F 49.4 °F 30.23 in NE 4.0 mph 10.0 mph 90% 0.00 in
06:44 52.3 °F 49.5 °F 30.23 in NE 3.0 mph 10.0 mph 90% 0.00 in
06:49 52.3 °F 49.5 °F 30.23 in ENE 5.0 mph 10.0 mph 90% 0.00 in
06:54 52.4 °F 49.6 °F 30.23 in ENE 5.0 mph 12.0 mph 90% 0.00 in
06:59 52.4 °F 49.6 °F 30.23 in East 6.0 mph 11.0 mph 90% 0.00 in
07:04 52.4 °F 49.6 °F 30.23 in NE 6.0 mph 12.0 mph 90% 0.00 in
07:09 52.4 °F 49.6 °F 30.23 in NE 7.0 mph 10.0 mph 90% 0.00 in
07:14 52.5 °F 49.7 °F 30.23 in NE 3.0 mph 10.0 mph 90% 0.00 in
07:19 52.5 °F 49.7 °F 30.23 in ENE 5.0 mph 10.0 mph 90% 0.00 in
07:24 52.5 °F 49.7 °F 30.23 in ENE 5.0 mph 10.0 mph 90% 0.00 in
07:29 52.5 °F 49.7 °F 30.23 in ENE 5.0 mph 10.0 mph 90% 0.00 in
07:34 52.5 °F 49.7 °F 30.23 in ENE 5.0 mph 11.0 mph 90% 0.00 in
07:39 52.5 °F 49.7 °F 30.23 in ENE 5.0 mph 14.0 mph 90% 0.00 in
07:44 52.5 °F 49.7 °F 30.23 in East 5.0 mph 14.0 mph 90% 0.00 in
07:49 52.5 °F 49.7 °F 30.23 in East 6.0 mph 13.0 mph 90% 0.00 in
07:54 52.6 °F 49.8 °F 30.23 in East 5.0 mph 15.0 mph 90% 0.00 in
07:59 52.6 °F 49.8 °F 30.24 in ENE 4.0 mph 9.0 mph 90% 0.00 in
08:04 52.7 °F 49.8 °F 30.24 in East 3.0 mph 10.0 mph 90% 0.00 in
08:09 52.7 °F 49.8 °F 30.24 in SSE 6.0 mph 9.0 mph 90% 0.00 in
08:19 52.8 °F 49.6 °F 30.24 in ENE 5.0 mph 13.0 mph 89% 0.00 in
08:24 53.0 °F 49.8 °F 30.24 in ENE 5.0 mph 11.0 mph 89% 0.00 in
08:29 53.1 °F 49.9 °F 30.25 in ENE 6.0 mph 11.0 mph 89% 0.00 in
08:34 53.2 °F 50.0 °F 30.25 in ENE 4.0 mph 11.0 mph 89% 0.00 in
08:39 53.3 °F 50.1 °F 30.25 in NE 6.0 mph 9.0 mph 89% 0.00 in
08:44 53.4 °F 50.2 °F 30.25 in ENE 6.0 mph 13.0 mph 89% 0.00 in
08:49 53.5 °F 50.3 °F 30.25 in ENE 6.0 mph 13.0 mph 89% 0.00 in
08:54 53.5 °F 50.3 °F 30.25 in ENE 6.0 mph 13.0 mph 89% 0.00 in
08:59 53.7 °F 50.5 °F 30.25 in ESE 5.0 mph 12.0 mph 89% 0.00 in
09:04 53.8 °F 50.6 °F 30.25 in ENE 9.0 mph 10.0 mph 89% 0.00 in
09:09 53.9 °F 50.7 °F 30.25 in ENE 5.0 mph 10.0 mph 89% 0.00 in
09:14 53.9 °F 50.7 °F 30.25 in ENE 6.0 mph 12.0 mph 89% 0.00 in
09:19 54.1 °F 50.6 °F 30.25 in ENE 7.0 mph 12.0 mph 88% 0.00 in
09:24 54.1 °F 50.6 °F 30.25 in ENE 8.0 mph 11.0 mph 88% 0.00 in
09:29 54.1 °F 50.6 °F 30.25 in ENE 3.0 mph 10.0 mph 88% 0.00 in
09:34 54.1 °F 50.6 °F 30.26 in ENE 7.0 mph 13.0 mph 88% 0.00 in
09:39 54.2 °F 50.7 °F 30.26 in ENE 6.0 mph 13.0 mph 88% 0.00 in
09:44 54.2 °F 50.7 °F 30.26 in ENE 6.0 mph 12.0 mph 88% 0.00 in
09:49 54.3 °F 50.8 °F 30.26 in ENE 6.0 mph 12.0 mph 88% 0.00 in
09:54 54.4 °F 50.9 °F 30.26 in ENE 7.0 mph 14.0 mph 88% 0.00 in
09:59 54.5 °F 51.0 °F 30.26 in NE 5.0 mph 13.0 mph 88% 0.00 in
10:04 54.6 °F 51.1 °F 30.26 in NE 10.0 mph 13.0 mph 88% 0.00 in
10:09 54.7 °F 51.2 °F 30.26 in ENE 6.0 mph 14.0 mph 88% 0.00 in
10:14 54.9 °F 51.4 °F 30.26 in ESE 9.0 mph 13.0 mph 88% 0.00 in
10:19 55.0 °F 51.5 °F 30.26 in NE 12.0 mph 15.0 mph 88% 0.00 in
10:24 55.2 °F 51.4 °F 30.26 in ENE 3.0 mph 14.0 mph 87% 0.00 in
10:29 55.5 °F 52.0 °F 30.26 in NE 5.0 mph 14.0 mph 88% 0.00 in
10:35 55.7 °F 51.9 °F 30.26 in NE 8.0 mph 14.0 mph 87% 0.00 in
10:40 56.0 °F 52.2 °F 30.26 in NE 7.0 mph 14.0 mph 87% 0.00 in
10:45 56.2 °F 52.4 °F 30.26 in ENE 6.0 mph 14.0 mph 87% 0.00 in
10:50 56.5 °F 52.4 °F 30.26 in NE 7.0 mph 13.0 mph 86% 0.00 in
10:55 56.9 °F 52.8 °F 30.26 in NE 7.0 mph 13.0 mph 86% 0.00 in
11:00 57.2 °F 53.0 °F 30.27 in ENE 6.0 mph 13.0 mph 86% 0.00 in
11:05 57.6 °F 53.1 °F 30.27 in NE 7.0 mph 14.0 mph 85% 0.00 in
11:10 58.1 °F 53.6 °F 30.27 in NE 5.0 mph 14.0 mph 85% 0.00 in
11:15 58.5 °F 53.7 °F 30.27 in ENE 7.0 mph 14.0 mph 84% 0.00 in
11:20 58.9 °F 53.7 °F 30.26 in ENE 7.0 mph 14.0 mph 83% 0.00 in
11:25 59.1 °F 53.9 °F 30.27 in ENE 6.0 mph 14.0 mph 83% 0.00 in
11:30 59.5 °F 54.3 °F 30.26 in ENE 4.0 mph 14.0 mph 83% 0.00 in
11:35 59.6 °F 54.1 °F 30.26 in ENE 6.0 mph 15.0 mph 82% 0.00 in
11:40 60.0 °F 54.5 °F 30.26 in ENE 6.0 mph 15.0 mph 82% 0.00 in
11:45 60.8 °F 55.3 °F 30.26 in ENE 6.0 mph 15.0 mph 82% 0.00 in
11:50 61.9 °F 56.0 °F 30.26 in ENE 4.0 mph 13.0 mph 81% 0.00 in
11:55 62.0 °F 55.8 °F 30.26 in ENE 5.0 mph 13.0 mph 80% 0.00 in
12:00 62.5 °F 55.9 °F 30.26 in ENE 5.0 mph 13.0 mph 79% 0.00 in
12:05 62.0 °F 55.1 °F 30.26 in ENE 5.0 mph 13.0 mph 78% 0.00 in
12:10 61.8 °F 55.2 °F 30.26 in East 5.0 mph 11.0 mph 79% 0.00 in
12:15 62.5 °F 55.5 °F 30.26 in East 5.0 mph 11.0 mph 78% 0.00 in
12:20 62.7 °F 55.7 °F 30.26 in ENE 6.0 mph 11.0 mph 78% 0.00 in
12:25 62.3 °F 55.7 °F 30.26 in ENE 5.0 mph 11.0 mph 79% 0.00 in
12:30 62.9 °F 56.3 °F 30.26 in East 5.0 mph 11.0 mph 79% 0.00 in
12:35 63.3 °F 56.3 °F 30.26 in East 5.0 mph 10.0 mph 78% 0.00 in
12:40 63.1 °F 55.8 °F 30.26 in ENE 5.0 mph 10.0 mph 77% 0.00 in
12:45 63.2 °F 56.2 °F 30.26 in ENE 4.0 mph 10.0 mph 78% 0.00 in
12:50 63.6 °F 56.6 °F 30.26 in ENE 3.0 mph 10.0 mph 78% 0.00 in
12:55 63.7 °F 56.4 °F 30.26 in ESE 3.0 mph 8.0 mph 77% 0.00 in
13:00 63.6 °F 55.9 °F 30.25 in ESE 4.0 mph 10.0 mph 76% 0.00 in
13:05 63.2 °F 55.9 °F 30.25 in East 4.0 mph 10.0 mph 77% 0.00 in
13:10 63.0 °F 55.7 °F 30.25 in ENE 5.0 mph 11.0 mph 77% 0.00 in
13:15 63.0 °F 55.7 °F 30.25 in ENE 4.0 mph 11.0 mph 77% 0.00 in
13:20 63.2 °F 55.9 °F 30.25 in East 3.0 mph 11.0 mph 77% 0.00 in
13:25 63.2 °F 55.9 °F 30.25 in East 4.0 mph 10.0 mph 77% 0.00 in
13:30 63.2 °F 55.9 °F 30.25 in ENE 5.0 mph 10.0 mph 77% 0.00 in
13:35 63.2 °F 55.9 °F 30.25 in East 5.0 mph 10.0 mph 77% 0.00 in
13:40 63.6 °F 56.3 °F 30.25 in East 3.0 mph 10.0 mph 77% 0.00 in
13:45 63.7 °F 56.0 °F 30.25 in ENE 4.0 mph 10.0 mph 76% 0.00 in
13:50 63.9 °F 56.2 °F 30.25 in ENE 4.0 mph 9.0 mph 76% 0.00 in
13:55 63.7 °F 56.0 °F 30.25 in East 6.0 mph 14.0 mph 76% 0.00 in
14:00 63.7 °F 56.0 °F 30.25 in East 4.0 mph 14.0 mph 76% 0.00 in
14:05 63.9 °F 56.2 °F 30.24 in East 3.0 mph 14.0 mph 76% 0.00 in
14:10 64.2 °F 56.5 °F 30.24 in East 5.0 mph 10.0 mph 76% 0.00 in
14:15 64.3 °F 55.8 °F 30.24 in East 5.0 mph 11.0 mph 74% 0.00 in
14:20 64.4 °F 56.3 °F 30.24 in East 3.0 mph 11.0 mph 75% 0.00 in
14:25 64.8 °F 56.7 °F 30.24 in ENE 4.0 mph 11.0 mph 75% 0.00 in
14:39 64.8 °F 56.3 °F 30.24 in ENE 3.0 mph 10.0 mph 74% 0.00 in
14:45 64.7 °F 56.2 °F 30.24 in ESE 7.0 mph 10.0 mph 74% 0.00 in
14:50 64.5 °F 56.4 °F 30.24 in ENE 3.0 mph 10.0 mph 75% 0.00 in
14:55 64.1 °F 55.6 °F 30.23 in East 3.0 mph 14.0 mph 74% 0.00 in
15:00 64.0 °F 55.9 °F 30.23 in East 5.0 mph 9.0 mph 75% 0.00 in
15:05 64.0 °F 56.3 °F 30.23 in East 2.0 mph 10.0 mph 76% 0.00 in
15:15 64.0 °F 55.9 °F 30.23 in ESE 4.0 mph 9.0 mph 75% 0.00 in
15:20 64.0 °F 55.9 °F 30.23 in ESE 4.0 mph 9.0 mph 75% 0.00 in
15:25 63.9 °F 55.8 °F 30.23 in East 5.0 mph 11.0 mph 75% 0.00 in
15:30 64.1 °F 56.0 °F 30.23 in East 5.0 mph 11.0 mph 75% 0.00 in
15:35 64.5 °F 56.0 °F 30.23 in East 4.0 mph 10.0 mph 74% 0.00 in
15:40 64.5 °F 56.0 °F 30.23 in East 4.0 mph 11.0 mph 74% 0.00 in
15:45 64.0 °F 55.5 °F 30.24 in East 9.0 mph 11.0 mph 74% 0.00 in
15:50 63.6 °F 55.5 °F 30.23 in ESE 3.0 mph 13.0 mph 75% 0.00 in
15:55 63.4 °F 55.3 °F 30.24 in ENE 3.0 mph 11.0 mph 75% 0.00 in
16:00 63.3 °F 55.6 °F 30.24 in ESE 3.0 mph 9.0 mph 76% 0.00 in
16:05 63.3 °F 55.6 °F 30.24 in East 4.0 mph 11.0 mph 76% 0.00 in
16:10 63.2 °F 55.5 °F 30.24 in ESE 4.0 mph 11.0 mph 76% 0.00 in
16:15 63.2 °F 55.5 °F 30.24 in ESE 4.0 mph 10.0 mph 76% 0.00 in
16:20 63.3 °F 55.6 °F 30.24 in ESE 3.0 mph 9.0 mph 76% 0.00 in
16:25 63.4 °F 55.7 °F 30.24 in ESE 3.0 mph 9.0 mph 76% 0.00 in
16:30 63.3 °F 55.6 °F 30.24 in SSE 1.0 mph 4.0 mph 76% 0.00 in
16:35 63.4 °F 55.3 °F 30.24 in SE 3.0 mph 11.0 mph 75% 0.00 in
16:40 63.3 °F 55.2 °F 30.24 in SE 4.0 mph 11.0 mph 75% 0.00 in
16:45 63.2 °F 54.8 °F 30.24 in SE 5.0 mph 8.0 mph 74% 0.00 in
16:50 63.2 °F 54.8 °F 30.24 in SE 3.0 mph 7.0 mph 74% 0.00 in
16:55 63.1 °F 55.0 °F 30.24 in SE 2.0 mph 7.0 mph 75% 0.00 in
17:00 63.1 °F 54.7 °F 30.24 in SE 3.0 mph 8.0 mph 74% 0.00 in
17:05 63.0 °F 54.6 °F 30.24 in Calm   8.0 mph 74% 0.00 in
17:10 63.0 °F 54.6 °F 30.24 in SE 3.0 mph 8.0 mph 74% 0.00 in
17:15 62.9 °F 54.9 °F 30.24 in SE 3.0 mph 8.0 mph 75% 0.00 in
17:20 62.8 °F 54.4 °F 30.24 in SE 5.0 mph 10.0 mph 74% 0.00 in
17:25 62.7 °F 54.3 °F 30.24 in SE 4.0 mph 10.0 mph 74% 0.00 in
17:30 62.7 °F 54.3 °F 30.24 in SSE 5.0 mph 11.0 mph 74% 0.00 in
17:35 62.5 °F 54.1 °F 30.25 in SE 5.0 mph 9.0 mph 74% 0.00 in
17:40 62.4 °F 54.0 °F 30.25 in SSE 1.0 mph 11.0 mph 74% 0.00 in
17:45 62.3 °F 53.9 °F 30.25 in SE 1.0 mph 7.0 mph 74% 0.00 in
17:50 62.1 °F 54.1 °F 30.25 in SE 4.0 mph 11.0 mph 75% 0.00 in
17:55 61.8 °F 53.8 °F 30.25 in SE 4.0 mph 11.0 mph 75% 0.00 in
18:00 61.4 °F 53.4 °F 30.25 in SSE 4.0 mph 13.0 mph 75% 0.00 in
18:05 61.2 °F 53.6 °F 30.25 in SSE 5.0 mph 9.0 mph 76% 0.00 in
18:10 61.0 °F 53.4 °F 30.25 in SE 5.0 mph 15.0 mph 76% 0.00 in
18:15 60.6 °F 53.3 °F 30.25 in ESE 4.0 mph 15.0 mph 77% 0.00 in
18:20 60.4 °F 53.5 °F 30.25 in SSE 3.0 mph 7.0 mph 78% 0.00 in
18:25 60.1 °F 53.6 °F 30.25 in ESE 1.0 mph 10.0 mph 79% 0.00 in
18:30 59.8 °F 53.3 °F 30.25 in SE 4.0 mph 10.0 mph 79% 0.00 in
18:35 59.6 °F 53.4 °F 30.25 in ESE 3.0 mph 13.0 mph 80% 0.00 in
18:40 59.4 °F 53.6 °F 30.25 in SE 3.0 mph 13.0 mph 81% 0.00 in
18:45 59.2 °F 53.7 °F 30.25 in East 3.0 mph 8.0 mph 82% 0.00 in
18:50 59.1 °F 53.6 °F 30.25 in SE 3.0 mph 8.0 mph 82% 0.00 in
18:55 59.0 °F 53.5 °F 30.25 in SE 3.0 mph 10.0 mph 82% 0.00 in
19:00 58.9 °F 53.4 °F 30.25 in East 3.0 mph 7.0 mph 82% 0.00 in
19:05 58.9 °F 53.4 °F 30.25 in East 5.0 mph 9.0 mph 82% 0.00 in
19:10 58.9 °F 53.4 °F 30.25 in SE 3.0 mph 10.0 mph 82% 0.00 in
19:15 58.9 °F 53.4 °F 30.25 in SSE 3.0 mph 8.0 mph 82% 0.00 in
19:20 58.9 °F 53.4 °F 30.25 in Calm   11.0 mph 82% 0.00 in
19:25 58.9 °F 53.4 °F 30.26 in SE 3.0 mph 11.0 mph 82% 0.00 in
19:30 58.9 °F 53.4 °F 30.26 in SE 3.0 mph 8.0 mph 82% 0.00 in
19:35 58.9 °F 53.4 °F 30.26 in ESE 3.0 mph 8.0 mph 82% 0.00 in
19:40 58.9 °F 53.4 °F 30.26 in ESE 2.0 mph 8.0 mph 82% 0.00 in
19:45 58.9 °F 53.7 °F 30.26 in SE 3.0 mph 8.0 mph 83% 0.00 in
19:50 58.6 °F 53.8 °F 30.26 in SE 3.0 mph 9.0 mph 84% 0.00 in
19:55 58.2 °F 53.7 °F 30.26 in SE 2.0 mph 9.0 mph 85% 0.00 in
20:00 58.0 °F 53.8 °F 30.25 in SE 3.0 mph 4.0 mph 86% 0.00 in
20:05 57.7 °F 53.9 °F 30.26 in Calm   4.0 mph 87% 0.00 in
20:10 57.6 °F 53.8 °F 30.26 in Calm   3.0 mph 87% 0.01 in
20:15 57.5 °F 54.0 °F 30.26 in Calm   3.0 mph 88% 0.01 in
20:20 57.4 °F 53.9 °F 30.26 in Calm     88% 0.01 in
20:25 57.3 °F 54.1 °F 30.26 in Calm     89% 0.01 in
20:30 57.3 °F 54.1 °F 30.26 in Calm   5.0 mph 89% 0.01 in
20:35 57.3 °F 54.1 °F 30.26 in Calm   5.0 mph 89% 0.01 in
20:40 57.3 °F 54.1 °F 30.26 in Calm     89% 0.01 in
20:45 57.3 °F 54.1 °F 30.26 in Calm     89% 0.01 in
20:50 57.3 °F 54.1 °F 30.26 in Calm   3.0 mph 89% 0.01 in
20:55 57.3 °F 54.1 °F 30.26 in Calm   3.0 mph 89% 0.01 in
21:00 57.3 °F 54.1 °F 30.26 in Calm   6.0 mph 89% 0.01 in
21:05 57.3 °F 54.1 °F 30.26 in SSE 1.0 mph 3.0 mph 89% 0.01 in
21:10 57.3 °F 54.1 °F 30.26 in Calm   2.0 mph 89% 0.00 in
21:15 57.3 °F 54.1 °F 30.26 in Calm   3.0 mph 89% 0.00 in
21:20 57.3 °F 53.8 °F 30.26 in Calm   4.0 mph 88% 0.00 in
21:25 57.4 °F 53.9 °F 30.26 in SE 1.0 mph 4.0 mph 88% 0.00 in
21:30 57.5 °F 54.0 °F 30.26 in SE 1.0 mph 4.0 mph 88% 0.00 in
21:35 57.5 °F 53.7 °F 30.26 in SE 2.0 mph 5.0 mph 87% 0.00 in
21:40 57.6 °F 53.8 °F 30.26 in SE 2.0 mph 5.0 mph 87% 0.00 in
21:45 57.6 °F 53.8 °F 30.26 in SE 2.0 mph 4.0 mph 87% 0.00 in
21:50 57.6 °F 53.8 °F 30.26 in Calm   3.0 mph 87% 0.00 in
21:55 57.6 °F 53.4 °F 30.25 in SE 1.0 mph 3.0 mph 86% 0.00 in
22:00 57.6 °F 53.4 °F 30.26 in Calm   4.0 mph 86% 0.00 in
22:05 57.5 °F 53.3 °F 30.25 in SSE 3.0 mph 5.0 mph 86% 0.00 in
22:10 57.5 °F 53.3 °F 30.25 in SSE 2.0 mph 4.0 mph 86% 0.00 in
22:15 57.5 °F 53.3 °F 30.25 in SSE 4.0 mph 5.0 mph 86% 0.00 in
22:20 57.5 °F 53.0 °F 30.25 in SSE 2.0 mph 7.0 mph 85% 0.00 in
22:25 57.5 °F 53.0 °F 30.25 in SSE 3.0 mph 5.0 mph 85% 0.00 in
22:30 57.3 °F 52.8 °F 30.25 in SSE 2.0 mph 5.0 mph 85% 0.00 in
22:35 57.1 °F 52.3 °F 30.25 in SSE 1.0 mph 5.0 mph 84% 0.00 in
22:40 56.9 °F 52.1 °F 30.24 in Calm   3.0 mph 84% 0.00 in
22:45 56.7 °F 51.9 °F 30.24 in Calm   3.0 mph 84% 0.00 in
22:50 56.4 °F 51.9 °F 30.24 in Calm   3.0 mph 85% 0.00 in
22:55 56.2 °F 51.7 °F 30.24 in Calm   3.0 mph 85% 0.00 in
23:00 56.0 °F 51.6 °F 30.24 in Calm   3.0 mph 85% 0.00 in
23:10 55.7 °F 51.6 °F 30.24 in Calm     86% 0.00 in
23:15 55.6 °F 51.5 °F 30.24 in Calm     86% 0.00 in
23:20 55.6 °F 51.5 °F 30.24 in Calm     86% 0.00 in
23:25 55.4 °F 51.3 °F 30.24 in Calm     86% 0.00 in
23:30 55.3 °F 51.2 °F 30.24 in Calm     86% 0.00 in
23:35 55.2 °F 51.4 °F 30.24 in Calm   2.0 mph 87% 0.00 in
23:40 55.2 °F 51.4 °F 30.24 in Calm   3.0 mph 87% 0.00 in
23:45 55.1 °F 51.3 °F 30.24 in Calm   3.0 mph 87% 0.00 in
23:50 55.0 °F 51.2 °F 30.25 in SSW 1.0 mph 3.0 mph 87% 0.00 in
23:55 55.0 °F 51.2 °F 30.24 in Calm   3.0 mph 87% 0.00 in
Buffalo, New York, USA
Compliments of Weather Underground - 2.5 mb